Regional Weather Roundup
Issued by NWS

Home | Current Version | Previous Version | Text Only | Print | Product List | Glossary On
Versions: 1 2 3 4 5 6 7 8 9 10 11 12 13 14 15 16 17 18 19 20 21 22 23 24 25 26 27 28 29 30 31 32 33 34 35 36 37 38 39 40 41 42 43 44 45 46 47 48 49 50
000
ASUS44 KMEG 310910
RWRTN
TENNESSEE HOURLY STATE WEATHER ROUNDUP
NATIONAL WEATHER SERVICE MEMPHIS TN
400 AM CDT TUE MAR 31 2015

TNZ002-004-019-021-049-052-054-088>092-311000-
WEST TENNESSEE

CITY           SKY/WX    TMP DP  RH WIND       PRES   REMARKS
MEMPHIS INTL   PTCLDY    55  46  71 CALM      30.00S
NWS MEMPHIS      N/A     50 N/A N/A MISG        N/A
JACKSON        CLEAR     41  37  86 CALM      30.00F
DYERSBURG      CLEAR     46  30  53 SE3       29.99F
UNION CITY     CLEAR     43  37  81 S3        29.97F
PARIS          CLEAR     45  30  57 S5        29.99F
HUNTINGDON     CLEAR     39  33  79 CALM      30.00F
LEXINGTON      CLEAR     37  36  93 CALM      30.00F
SAVANNAH       CLEAR     41  41 100 S5        30.02S
$$

TNZ008-025-027-028-033-062-065-066-311000-
NORTH MIDDLE TENNESSEE

CITY           SKY/WX    TMP DP  RH WIND       PRES   REMARKS
NASHVILLE      CLEAR     42  34  73 CALM      30.01F
CLARKSVILLE    CLEAR     40  34  79 S5        29.99F
SMYRNA         CLEAR     38  36  92 CALM      30.03F
COOKEVILLE     CLEAR     34  32  93 CALM        N/A
CROSSVILLE     CLEAR     39  31  72 CALM      30.03F
$$

TNZ061-075-076-078-094-096-097-311000-
SOUTH MIDDLE TENNESSEE

CITY           SKY/WX    TMP DP  RH WIND       PRES   REMARKS
FAYETTEVILLE   CLEAR     46  37  71 CALM      30.04S
TULLAHOMA      CLEAR     37  34  87 CALM      30.04S
WINCHESTER     CLEAR     43  37  81 CALM      30.04S
MCMINNVILLE    CLEAR     36  36 100 CALM      30.02F
COLUMBIA       CLEAR    N/A N/A N/A CALM      30.01F
SHELBYVILLE    CLEAR     41  37  87 E3        30.04S
$$

TNZ017-018-042-046-047-311000-
NORTHEAST TENNESSEE

CITY           SKY/WX    TMP DP  RH WIND       PRES   REMARKS
TRI CITIES     PTCLDY    34  30  85 CALM      30.04F
ELIZABETHTON   SUNNY     30  28  93 CALM      30.04F
$$

TNZ012-013-036-069-073-074-311000-
CENTRAL EAST TENNESSEE

CITY           SKY/WX    TMP DP  RH WIND       PRES   REMARKS
KNOXVILLE      CLEAR     41  33  73 CALM      30.04F
OAK RIDGE      CLEAR     39  33  79 CALM      30.06F
GATLINBURG     SUNNY     34  30  86 CALM      30.03F
MORRISTOWN     SUNNY     39  28  65 CALM      30.03F
$$

TNZ083-085-099-311000-
SOUTHEAST TENNESSEE

CITY           SKY/WX    TMP DP  RH WIND       PRES   REMARKS
CHATTANOOGA    CLEAR     43  39  86 CALM      30.05F
$$

SKY/WX REPORTED AS FAIR MEANS FEW OR NO CLOUDS BELOW
12 THOUSAND FEET.




USA.gov is the U.S. government's official web portal to all federal, state and local government web resources and services.